User: anonymous
Location: Unspecified
(0.0000°N, 0.0000°E)
Time: 08:01:37
(UTC+00:00)
Language:

STSS ATRR (USA 205) - Orbit

View from above orbital plane
View from above orbital plane
View from above satellite
View from above satellite

Ground track
Ground track

The orbit data is extracted from the following two-line orbital elements,

1 34903U 09023A   14235.95836923 0.00000030  00000-0  18080-4 0    00
2 34903  98.9310 332.4008 0006000 245.8697 114.1302 14.06718726    02
Epoch (UTC): 23 August 2014 23:00:03
Eccentricity: 0.0006000
inclination: 98.9310°
perigee height: 866 km
apogee height: 875 km
right ascension of ascending node: 332.4008°
argument of perigee: 245.8697°
revolutions per day: 14.06718726
mean anomaly at epoch: 114.1302°
orbit number at epoch: 0

The dashed part of the orbit path shows where the satellite is in the earth's shadow,  

DLR